CAPE
0 0 0 0 0 0 0 0 0 0 0 0 0 0 0 0 0 0 0 6 32 56 69 119 190 262 253 208 188 74 0 0 0 0 0 0 0 5 63 67 0 9 0
0 0 0 0 0 0 0 0 0 0 0 0 0 0 0 0 0 0 0 0 34 24 34 54 138 264 292 266 203 50 0 0 0 0 4 49 58 93 108 31 0 0 0
0 0 0 0 0 0 0 0 0 0 0 0 0 0 0 0 0 0 0 0 6 57 45 32 88 129 152 237 148 63 1 8 19 3 30 94 108 97 17 0 0 0 11
0 0 0 0 0 0 0 0 0 0 0 0 0 0 0 0 0 0 5 0 0 87 89 39 47 105 95 104 123 84 14 33 107 112 73 72 63 53 20 87 92 65 0
0 0 0 0 0 0 0 0 0 0 0 0 0 0 0 0 0 7 17 6 0 5 31 86 54 75 53 91 58 50 25 6 26 56 58 51 49 54 70 17 0 0 0
0 0 0 0 0 0 0 0 0 0 0 0 0 0 0 0 28 27 14 18 13 0 0 42 49 53 64 68 54 58 57 34 14 43 68 44 0 55 43 2 0 0 0
0 0 0 0 0 0 0 0 0 0 0 0 0 0 0 0 2 0 0 0 0 0 0 0 10 42 37 39 29 28 196 186 81 171 81 78 65 66 13 1 0 0 0
0 0 0 0 0 0 0 0 0 0 0 0 0 0 0 0 0 0 0 0 0 0 0 0 0 0 1 58 80 42 21 35 74 147 152 90 81 19 0 0 0 0 0
0 0 0 0 0 0 0 0 0 0 0 0 0 0 0 0 0 0 0 0 0 0 0 0 0 0 0 2 71 91 214 181 323 214 183 25 0 0 0 0 0 0 0
0 0 0 0 0 0 3 4 0 0 0 0 0 0 0 0 0 0 0 0 0 0 0 0 0 0 0 27 71 214 276 276 199 8 0 0 0 0 0 0 0 0 0
0 0 0 0 0 4 0 1 0 0 0 0 0 0 0 0 0 0 0 0 0 0 0 0 0 1 37 48 110 235 302 181 31 0 0 0 0 0 0 0 0 0 0
2 0 0 0 5 6 1 1 0 0 0 0 0 0 0 0 0 0 0 0 0 0 0 0 6 7 48 74 79 159 224 61 0 0 0 4 5 7 0 18 2 0 0
0 0 0 0 0 1 1 1 0 0 0 0 0 0 0 0 0 0 0 0 0 0 0 3 12 17 68 49 97 61 14 0 0 10 13 41 25 17 65 64 40 0 0
1 2 0 0 0 0 0 0 1 0 0 0 0 0 0 0 0 0 0 0 14 16 2 6 19 2 50 90 121 65 49 67 23 54 87 109 70 64 127 154 132 0 133
3 0 0 1 2 4 1 0 4 0 0 0 0 0 0 0 0 0 0 0 8 27 11 2 20 9 63 34 29 35 84 160 145 163 148 172 199 126 167 286 195 48 49
0 8 1 5 2 0 0 0 4 0 0 0 0 0 0 0 0 0 0 0 0 11 2 4 3 0 5 13 22 46 70 0 8 99 149 136 152 147 157 224 209 114 0
0 3 0 0 0 9 1 6 0 0 0 0 0 0 0 0 0 0 0 0 0 4 0 0 0 0 18 31 42 61 70 34 16 37 42 50 53 89 136 138 155 53 0
10 2 3 1 0 1 0 0 0 0 2 0 0 2 0 0 0 0 0 0 0 0 0 0 0 0 24 36 70 78 77 42 37 29 21 50 52 54 74 51 42 17 0
2 0 9 1 0 0 0 1 0 0 0 0 0 0 0 0 0 0 0 0 0 0 0 0 0 0 12 35 82 84 89 93 26 21 0 1 6 0 0 41 28 5 3
9 9 6 0 2 0 0 0 0 0 0 0 0 0 0 0 0 0 0 0 0 0 0 0 0 0 0 19 48 45 65 95 30 0 0 0 0 0 14 33 4 9 22
1 6 19 2 0 0 0 0 0 0 0 0 0 0 0 0 0 0 0 0 0 0 0 2 0 0 0 5 26 31 43 55 22 0 1 20 77 19 4 20 15 31 10
0 0 10 4 7 1 4 2 0 0 2 0 0 0 0 0 0 0 0 0 0 0 0 0 0 0 11 23 35 53 34 22 16 116 216 162 104 62 63 23 36 33 20
0 0 4 22 6 11 14 11 1 0 0 0 0 0 0 0 0 0 0 0 0 0 0 0 4 5 18 32 63 86 40 2 33 158 79 38 38 40 9 21 34 33 33
0 0 0 2 10 9 9 11 4 2 1 0 0 0 0 0 0 0 0 0 1 0 0 6 10 25 23 36 45 59 35 8 2 49 3 0 5 5 21 29 35 40 21
0 0 4 0 13 13 10 3 6 2 3 3 0 0 0 0 0 0 0 0 0 0 0 11 22 59 35 40 19 29 1 0 1 0 6 3 12 25 30 36 34 57 56
0 0 2 4 21 10 0 0 0 5 1 4 7 0 0 0 0 0 0 0 0 0 0 9 15 21 35 28 31 13 14 4 2 0 0 12 27 27 26 32 67 67 59
CIN
0 0 0 0 0 0 0 0 0 0 0 0 0 0 0 0 0 0 0 -132 -91 -54 -53 -43 -47 -49 -41 -36 -53 -66 0 0 0 0 0 0 0 -259 -63 -96 0 -161 0
0 0 0 0 0 0 0 0 0 0 0 0 0 0 0 0 0 0 0 -1 -103 -96 -108 -45 -46 -46 -37 -53 -62 -80 0 0 0 0 -42 -44 -72 -41 -50 -62 0 0 0
0 0 0 0 0 0 0 0 0 0 0 0 0 0 0 0 0 0 0 0 -36 -87 -87 -36 -77 -68 -78 -57 -65 -51 -7 -40 -57 -30 -39 -21 -29 -29 -47 0 0 0 -17
0 0 0 0 0 0 0 0 0 0 0 0 0 0 0 0 0 0 -51 0 0 -51 -68 -88 -85 -50 -79 -93 -62 -33 -19 -40 -37 -43 -43 -26 -17 -13 -98 -75 -60 -46 0
0 0 0 0 0 0 0 0 0 0 0 0 0 0 0 0 0 -63 -86 -67 0 -11 -88 -62 -87 -59 -69 -62 -43 -28 -17 -42 -58 -82 -41 -21 -34 -65 -62 -56 0 0 0
0 0 0 0 0 0 0 0 0 0 0 0 0 0 0 0 -72 -61 -58 -65 -67 0 0 -90 -110 -65 -71 -56 -66 -52 -95 -56 -71 -79 -60 -28 -1 -13 -32 -29 0 0 0
0 0 0 0 0 0 0 0 0 0 0 0 0 0 0 0 -25 0 0 0 0 0 0 0 -84 -88 -64 -58 -22 -7 -27 -30 -49 -36 -39 -26 -25 -6 -30 -27 0 0 0
0 0 0 0 0 0 0 0 0 0 0 0 0 0 0 0 0 0 0 0 0 0 0 0 0 0 -10 -51 -47 -86 -128 -195 -73 -30 -18 -19 -9 -4 0 0 0 0 0
0 0 0 0 0 0 0 0 0 0 0 0 0 0 0 0 0 0 0 0 0 0 0 0 0 0 0 -171 -69 -79 -54 -48 -32 -24 -11 -21 0 0 0 0 0 0 0
0 0 0 0 0 0 0 0 0 0 0 0 0 0 0 0 0 0 0 0 0 0 0 0 0 0 0 -35 -33 -47 -32 -34 -35 -1 0 0 0 0 0 0 0 0 0
0 0 0 0 0 -1 0 0 0 0 0 0 0 0 0 0 0 0 0 0 0 0 -1 0 0 -4 0 -2 -12 -17 -9 -14 -4 0 0 0 0 0 0 0 0 0 0
-1 0 0 0 -1 -2 0 0 0 0 0 0 0 0 0 0 0 0 0 0 0 0 0 0 -5 0 -23 -22 -37 -10 -13 -15 0 0 0 -51 -51 -39 0 -47 -9 0 0
0 0 0 0 0 -1 0 0 0 0 0 0 0 0 0 0 0 0 0 0 0 -2 0 -49 -6 -27 -21 -27 -25 -29 -39 0 0 -48 -53 -55 -48 -18 -20 -36 -50 0 0
0 0 0 0 0 0 0 0 0 0 0 0 0 0 0 0 0 0 0 0 0 0 -6 -31 -49 -11 -42 -23 -21 -54 -18 -14 -48 -60 -54 -43 -25 -17 -18 -24 -28 -113 -106
0 0 0 -4 0 -1 -4 0 0 0 0 0 0 0 0 0 0 0 0 0 0 0 0 -1 -53 -27 -1 -11 -11 -14 -26 -36 -49 -60 -57 -43 -31 -40 -10 -16 -25 -64 -143
0 0 0 0 0 0 0 0 0 0 0 0 0 0 0 0 0 0 0 0 0 0 0 0 0 0 -8 -22 -62 -26 -33 0 -71 -87 -84 -83 -62 -47 -30 -23 -17 -13 0
0 -1 0 0 0 -2 -3 -2 0 0 0 0 0 0 0 0 0 0 0 0 0 0 0 0 -1 0 -5 -41 -40 -33 -38 -62 -102 -82 -116 -107 -84 -65 -30 -33 -15 -24 0
0 -1 0 0 0 -1 0 0 0 -1 -1 0 0 -1 0 0 0 0 0 0 0 0 0 0 0 0 -15 -56 -52 -53 -47 -71 -65 -85 -97 -94 -60 -39 -42 -47 -36 -56 0
0 0 0 -1 0 0 0 -1 0 0 0 0 0 0 0 0 0 0 0 0 0 0 0 0 0 0 -39 -53 -60 -56 -65 -75 -80 -88 0 -50 -70 -3 0 -43 -12 -21 -4
0 0 0 0 -1 0 0 0 0 0 0 0 0 0 0 0 0 0 0 0 0 0 0 0 0 0 -1 -15 -31 -41 -64 -76 -79 -30 0 0 0 0 -17 -20 -14 -5 -22
0 0 0 0 -1 0 0 0 0 0 0 0 0 0 0 0 0 0 0 0 0 0 0 0 0 0 0 -34 -48 -65 -86 -92 -113 -5 -4 -67 -35 -26 -3 -9 -8 -19 -26
0 0 0 -1 -1 -2 -2 -1 0 0 0 0 0 0 0 0 0 0 0 0 0 0 0 0 0 0 -1 -16 -39 -61 -89 -128 -136 -53 -38 -28 -17 -22 -11 -19 -30 -9 -82
0 0 0 0 -1 -1 -1 -1 -1 0 0 0 0 0 0 0 0 0 0 0 0 0 0 0 -2 -16 -16 -56 -40 -33 -80 -87 -34 -23 -30 -34 -16 -26 -45 -64 -23 -39 -86
0 0 0 0 0 -2 -1 -1 -3 -1 0 0 0 0 0 0 0 0 0 0 0 0 0 0 -7 -4 -5 -46 -54 -70 -86 -139 -93 -51 -96 -17 -47 -64 -76 -35 -14 -53 0
0 0 0 0 0 -1 0 0 0 -3 -1 0 0 0 0 0 0 0 0 0 0 0 0 -2 -5 0 -1 -3 -85 -90 -154 0 -1 -12 -127 -104 -98 -77 -70 -41 -66 -33 -18
0 0 0 0 0 0 0 0 0 -1 -1 -1 0 0 0 0 0 0 0 0 0 0 0 0 0 -2 -1 0 0 -1 -4 -4 -2 0 0 -111 -95 -77 -68 -61 -36 -16 -7
Wind_Speed
nan nan nan nan nan nan nan nan nan nan nan nan nan nan nan nan nan nan nan nan nan nan nan 62 53 44 50 51 52 nan nan nan nan nan nan nan nan nan nan nan nan nan nan
nan nan nan nan nan nan nan nan nan nan nan nan nan nan nan nan nan nan nan nan nan nan nan nan 56 52 50 52 51 nan nan nan nan nan nan nan nan nan 49 nan nan nan nan
nan nan nan nan nan nan nan nan nan nan nan nan nan nan nan nan nan nan nan nan nan nan nan nan nan 53 49 48 46 nan nan nan nan nan nan nan 32 nan nan nan nan nan nan
nan nan nan nan nan nan nan nan nan nan nan nan nan nan nan nan nan nan nan nan nan nan nan nan nan 50 nan 42 40 nan nan nan 33 31 nan nan nan nan nan nan nan nan nan
nan nan nan nan nan nan nan nan nan nan nan nan nan nan nan nan nan nan nan nan nan nan nan nan nan nan nan nan nan nan nan nan nan nan nan nan nan nan nan nan nan nan nan
nan nan nan nan nan nan nan nan nan nan nan nan nan nan nan nan nan nan nan nan nan nan nan nan nan nan nan nan nan nan nan nan nan nan nan nan nan nan nan nan nan nan nan
nan nan nan nan nan nan nan nan nan nan nan nan nan nan nan nan nan nan nan nan nan nan nan nan nan nan nan nan nan nan 30 28 nan 37 nan nan nan nan nan nan nan nan nan
nan nan nan nan nan nan nan nan nan nan nan nan nan nan nan nan nan nan nan nan nan nan nan nan nan nan nan nan nan nan nan nan nan 27 37 nan nan nan nan nan nan nan nan
nan nan nan nan nan nan nan nan nan nan nan nan nan nan nan nan nan nan nan nan nan nan nan nan nan nan nan nan nan nan 33 29 34 36 37 nan nan nan nan nan nan nan nan
nan nan nan nan nan nan nan nan nan nan nan nan nan nan nan nan nan nan nan nan nan nan nan nan nan nan nan nan nan 34 35 34 34 nan nan nan nan nan nan nan nan nan nan
nan nan nan nan nan nan nan nan nan nan nan nan nan nan nan nan nan nan nan nan nan nan nan nan nan nan nan nan 34 39 40 34 nan nan nan nan nan nan nan nan nan nan nan
nan nan nan nan nan nan nan nan nan nan nan nan nan nan nan nan nan nan nan nan nan nan nan nan nan nan nan nan nan 42 32 nan nan nan nan nan nan nan nan nan nan nan nan
nan nan nan nan nan nan nan nan nan nan nan nan nan nan nan nan nan nan nan nan nan nan nan nan nan nan nan nan nan nan nan nan nan nan nan nan nan nan nan nan nan nan nan
nan nan nan nan nan nan nan nan nan nan nan nan nan nan nan nan nan nan nan nan nan nan nan nan nan nan nan nan 35 nan nan nan nan nan nan 21 nan nan 18 17 17 nan 21
nan nan nan nan nan nan nan nan nan nan nan nan nan nan nan nan nan nan nan nan nan nan nan nan nan nan nan nan nan nan nan 29 28 27 25 23 21 20 18 16 17 nan nan
nan nan nan nan nan nan nan nan nan nan nan nan nan nan nan nan nan nan nan nan nan nan nan nan nan nan nan nan nan nan nan nan nan nan 28 22 18 15 15 13 11 12 nan
nan nan nan nan nan nan nan nan nan nan nan nan nan nan nan nan nan nan nan nan nan nan nan nan nan nan nan nan nan nan nan nan nan nan nan nan nan nan 17 11 7 nan nan
nan nan nan nan nan nan nan nan nan nan nan nan nan nan nan nan nan nan nan nan nan nan nan nan nan nan nan nan nan nan nan nan nan nan nan nan nan nan nan nan nan nan nan
nan nan nan nan nan nan nan nan nan nan nan nan nan nan nan nan nan nan nan nan nan nan nan nan nan nan nan nan nan nan nan nan nan nan nan nan nan nan nan nan nan nan nan
nan nan nan nan nan nan nan nan nan nan nan nan nan nan nan nan nan nan nan nan nan nan nan nan nan nan nan nan nan nan nan nan nan nan nan nan nan nan nan nan nan nan nan
nan nan nan nan nan nan nan nan nan nan nan nan nan nan nan nan nan nan nan nan nan nan nan nan nan nan nan nan nan nan nan nan nan nan nan nan nan nan nan nan nan nan nan
nan nan nan nan nan nan nan nan nan nan nan nan nan nan nan nan nan nan nan nan nan nan nan nan nan nan nan nan nan nan nan nan nan 30 26 23 22 nan nan nan nan nan nan
nan nan nan nan nan nan nan nan nan nan nan nan nan nan nan nan nan nan nan nan nan nan nan nan nan nan nan nan nan nan nan nan nan 29 nan nan nan nan nan nan nan nan nan
nan nan nan nan nan nan nan nan nan nan nan nan nan nan nan nan nan nan nan nan nan nan nan nan nan nan nan nan nan nan nan nan nan nan nan nan nan nan nan nan nan nan nan
nan nan nan nan nan nan nan nan nan nan nan nan nan nan nan nan nan nan nan nan nan nan nan nan nan nan nan nan nan nan nan nan nan nan nan nan nan nan nan nan nan nan nan
nan nan nan nan nan nan nan nan nan nan nan nan nan nan nan nan nan nan nan nan nan nan nan nan nan nan nan nan nan nan nan nan nan nan nan nan nan nan nan nan nan nan nan
Wind_Direction
nan nan nan nan nan nan nan nan nan nan nan nan nan nan nan nan nan nan nan nan nan nan nan 275 273 272 273 273 275 nan nan nan nan nan nan nan nan nan nan nan nan nan nan
nan nan nan nan nan nan nan nan nan nan nan nan nan nan nan nan nan nan nan nan nan nan nan nan 272 270 274 274 274 nan nan nan nan nan nan nan nan nan 245 nan nan nan nan
nan nan nan nan nan nan nan nan nan nan nan nan nan nan nan nan nan nan nan nan nan nan nan nan nan 266 269 272 272 nan nan nan nan nan nan nan 248 nan nan nan nan nan nan
nan nan nan nan nan nan nan nan nan nan nan nan nan nan nan nan nan nan nan nan nan nan nan nan nan 269 nan 264 265 nan nan nan 266 261 nan nan nan nan nan nan nan nan nan
nan nan nan nan nan nan nan nan nan nan nan nan nan nan nan nan nan nan nan nan nan nan nan nan nan nan nan nan nan nan nan nan nan nan nan nan nan nan nan nan nan nan nan
nan nan nan nan nan nan nan nan nan nan nan nan nan nan nan nan nan nan nan nan nan nan nan nan nan nan nan nan nan nan nan nan nan nan nan nan nan nan nan nan nan nan nan
nan nan nan nan nan nan nan nan nan nan nan nan nan nan nan nan nan nan nan nan nan nan nan nan nan nan nan nan nan nan 255 253 nan 256 nan nan nan nan nan nan nan nan nan
nan nan nan nan nan nan nan nan nan nan nan nan nan nan nan nan nan nan nan nan nan nan nan nan nan nan nan nan nan nan nan nan nan 240 249 nan nan nan nan nan nan nan nan
nan nan nan nan nan nan nan nan nan nan nan nan nan nan nan nan nan nan nan nan nan nan nan nan nan nan nan nan nan nan 244 241 224 227 239 nan nan nan nan nan nan nan nan
nan nan nan nan nan nan nan nan nan nan nan nan nan nan nan nan nan nan nan nan nan nan nan nan nan nan nan nan nan 238 237 223 232 nan nan nan nan nan nan nan nan nan nan
nan nan nan nan nan nan nan nan nan nan nan nan nan nan nan nan nan nan nan nan nan nan nan nan nan nan nan nan 215 216 227 222 nan nan nan nan nan nan nan nan nan nan nan
nan nan nan nan nan nan nan nan nan nan nan nan nan nan nan nan nan nan nan nan nan nan nan nan nan nan nan nan nan 204 218 nan nan nan nan nan nan nan nan nan nan nan nan
nan nan nan nan nan nan nan nan nan nan nan nan nan nan nan nan nan nan nan nan nan nan nan nan nan nan nan nan nan nan nan nan nan nan nan nan nan nan nan nan nan nan nan
nan nan nan nan nan nan nan nan nan nan nan nan nan nan nan nan nan nan nan nan nan nan nan nan nan nan nan nan 199 nan nan nan nan nan nan 210 nan nan 222 239 245 nan 238
nan nan nan nan nan nan nan nan nan nan nan nan nan nan nan nan nan nan nan nan nan nan nan nan nan nan nan nan nan nan nan 199 205 207 211 208 200 213 208 224 240 nan nan
nan nan nan nan nan nan nan nan nan nan nan nan nan nan nan nan nan nan nan nan nan nan nan nan nan nan nan nan nan nan nan nan nan nan 208 210 206 211 215 215 236 255 nan
nan nan nan nan nan nan nan nan nan nan nan nan nan nan nan nan nan nan nan nan nan nan nan nan nan nan nan nan nan nan nan nan nan nan nan nan nan nan 223 219 228 nan nan
nan nan nan nan nan nan nan nan nan nan nan nan nan nan nan nan nan nan nan nan nan nan nan nan nan nan nan nan nan nan nan nan nan nan nan nan nan nan nan nan nan nan nan
nan nan nan nan nan nan nan nan nan nan nan nan nan nan nan nan nan nan nan nan nan nan nan nan nan nan nan nan nan nan nan nan nan nan nan nan nan nan nan nan nan nan nan
nan nan nan nan nan nan nan nan nan nan nan nan nan nan nan nan nan nan nan nan nan nan nan nan nan nan nan nan nan nan nan nan nan nan nan nan nan nan nan nan nan nan nan
nan nan nan nan nan nan nan nan nan nan nan nan nan nan nan nan nan nan nan nan nan nan nan nan nan nan nan nan nan nan nan nan nan nan nan nan nan nan nan nan nan nan nan
nan nan nan nan nan nan nan nan nan nan nan nan nan nan nan nan nan nan nan nan nan nan nan nan nan nan nan nan nan nan nan nan nan 211 215 222 216 nan nan nan nan nan nan
nan nan nan nan nan nan nan nan nan nan nan nan nan nan nan nan nan nan nan nan nan nan nan nan nan nan nan nan nan nan nan nan nan 208 nan nan nan nan nan nan nan nan nan
nan nan nan nan nan nan nan nan nan nan nan nan nan nan nan nan nan nan nan nan nan nan nan nan nan nan nan nan nan nan nan nan nan nan nan nan nan nan nan nan nan nan nan
nan nan nan nan nan nan nan nan nan nan nan nan nan nan nan nan nan nan nan nan nan nan nan nan nan nan nan nan nan nan nan nan nan nan nan nan nan nan nan nan nan nan nan
nan nan nan nan nan nan nan nan nan nan nan nan nan nan nan nan nan nan nan nan nan nan nan nan nan nan nan nan nan nan nan nan nan nan nan nan nan nan nan nan nan nan nan